Fort Rucker / Ozark, AL

1:10 AM CST on December 12, 2017 (GMT -0600)
Fort Rucker / Ozark

Weather History for KHEY - March, 2014

Change the Weather History Date:

Wednesday, March 12, 2014

  Actual Average (KOZR) Record (KOZR)
Temperature  
Mean Temperature 58 °F -  
Max Temperature 70 °F 66 °F 84 °F (2006)
Min Temperature 46 °F 45 °F 26 °F (1998)
Degree Days  
Heating Degree Days 7    
Growing Degree Days 8 (Base 50)    
Moisture  
Dew Point 56 °F    
Average Humidity 81    
Maximum Humidity 97    
Minimum Humidity 50    
Precipitation  
Precipitation 0.01 in - - ()
Sea Level Pressure  
Sea Level Pressure 29.62 in    
Wind  
Wind Speed 7 mph (West)    
Max Wind Speed 22 mph    
Max Gust Speed 34 mph    
Visibility 9 miles    
Events Rain    
Averages and records for this station are not official NWS values.
T = Trace of Precipitation, MM = Missing Value Source: NWS Daily Summary

Daily Weather History Graph

Daily Weather History Graph

Search for Another Location

Airport or City:

Trip Planner

Search our weather history database for the weather conditions in past years. The results will help you decide how hot, cold, wet, or windy it might be!

Date:

Astronomy

Mar. 12, 2014 Rise Set
Actual Time 6:56 AM CDT 6:48 PM CDT
Civil Twilight 6:32 AM CDT 7:12 PM CDT
Nautical Twilight 6:04 AM CDT 7:41 PM CDT
Astronomical Twilight 5:35 AM CDT 8:09 PM CDT
Moon 3:29 PM CDT 4:16 AM CDT
Length of Visible Light 12h 40m
Length of Day
11h 52m
Waxing Gibbous, 85% of the Moon is Illuminated
Mar 12
Waxing Gibbous
Mar 16
Full
Mar 23
Last Quarter
Mar 30
New
Apr 7
First Quarter

Hourly Weather History & Observations

Time (CDT) Temp. Windchill Dew Point Humidity Pressure Visibility Wind Dir Wind Speed Gust Speed Precip Events Conditions
12:26 AM 60.1 °F - 59.0 °F 96% 29.74 in 8.0 mi SSE 4.6 mph - N/A   Overcast
12:53 AM 61.0 °F - 60.1 °F 97% 29.41 in 6.0 mi South 3.5 mph - N/A   Overcast
1:53 AM 62.1 °F - 61.0 °F 96% 29.38 in 9.0 mi Variable 4.6 mph - N/A   Overcast
2:06 AM 62.1 °F - 61.0 °F 96% 29.70 in 9.0 mi Variable 3.5 mph - N/A   Overcast
2:23 AM 62.1 °F - 61.0 °F 96% 29.70 in 9.0 mi Variable 3.5 mph - N/A   Overcast
2:53 AM 62.1 °F - 61.0 °F 96% 29.36 in 10.0 mi South 4.6 mph - N/A   Overcast
3:53 AM 63.0 °F - 62.1 °F 97% 29.34 in 9.0 mi Variable 3.5 mph - 0.00 in   Overcast
4:25 AM 63.0 °F - 62.1 °F 97% 29.67 in 4.0 mi SW 6.9 mph - 0.01 in Rain Light Rain
4:34 AM 63.0 °F - 62.1 °F 97% 29.67 in 5.0 mi Variable 6.9 mph - 0.01 in Rain Light Rain
4:45 AM 63.0 °F - 62.1 °F 97% 29.67 in 5.0 mi SSW 6.9 mph - 0.01 in   Overcast
4:53 AM 63.0 °F - 62.1 °F 97% 29.35 in 6.0 mi WSW 6.9 mph - 0.01 in   Overcast
5:53 AM 63.0 °F - 62.1 °F 97% 29.36 in 5.0 mi SW 5.8 mph - N/A   Overcast
6:53 AM 63.0 °F - 61.0 °F 93% 29.38 in 10.0 mi WSW 4.6 mph - N/A   Overcast
7:08 AM 63.0 °F - 61.0 °F 93% 29.71 in 10.0 mi Variable 4.6 mph - N/A   Overcast
7:29 AM 63.0 °F - 61.0 °F 93% 29.71 in 10.0 mi West 4.6 mph - N/A   Overcast
7:48 AM 62.6 °F - 60.8 °F 94% 29.72 in 10.0 mi West 4.6 mph - N/A   Overcast
7:53 AM 63.0 °F - 61.0 °F 93% 29.39 in 10.0 mi Variable 5.8 mph - N/A   Overcast
8:09 AM 63.0 °F - 61.0 °F 93% 29.73 in 9.0 mi WSW 5.8 mph - N/A   Overcast
8:27 AM 63.0 °F - 61.0 °F 93% 29.74 in 9.0 mi WSW 4.6 mph - N/A   Overcast
8:40 AM 63.0 °F - 61.0 °F 93% 29.74 in 8.0 mi WSW 6.9 mph - N/A   Overcast
8:48 AM 62.6 °F - 60.8 °F 94% 29.75 in 8.0 mi Variable 6.9 mph - N/A   Overcast
8:53 AM 63.0 °F - 61.0 °F 93% 29.42 in 9.0 mi WSW 8.1 mph - N/A   Overcast
9:33 AM 64.0 °F - 60.1 °F 87% 29.76 in 10.0 mi WSW 6.9 mph - N/A   Overcast
9:53 AM 64.0 °F - 60.1 °F 87% 29.42 in 10.0 mi Variable 6.9 mph 16.1 mph N/A   Overcast
10:09 AM 64.9 °F - 60.1 °F 84% 29.75 in 10.0 mi Variable 3.5 mph - N/A   Overcast
10:28 AM 66.0 °F - 60.1 °F 81% 29.75 in 10.0 mi SW 9.2 mph - N/A   Overcast
10:39 AM 66.9 °F - 59.0 °F 76% 29.75 in 10.0 mi Variable 6.9 mph - N/A   Overcast
10:49 AM 66.2 °F - 57.2 °F 73% 29.75 in 10.0 mi West 11.5 mph 19.6 mph N/A   Overcast
10:53 AM 66.9 °F - 57.9 °F 73% 29.42 in 10.0 mi West 9.2 mph 19.6 mph N/A   Overcast
11:53 AM 68.0 °F - 57.9 °F 70% 29.42 in 10.0 mi Variable 4.6 mph - N/A   Overcast
12:53 PM 66.9 °F - 57.9 °F 73% 29.42 in 10.0 mi West 8.1 mph 19.6 mph N/A   Overcast
1:03 PM 68.0 °F - 57.9 °F 70% 29.74 in 10.0 mi WNW 6.9 mph - N/A   Overcast
1:53 PM 68.0 °F - 57.9 °F 70% 29.39 in 10.0 mi West 8.1 mph 17.3 mph N/A   Overcast
2:18 PM 68.0 °F - 57.9 °F 70% 29.72 in 10.0 mi West 8.1 mph 21.9 mph N/A   Overcast
2:27 PM 68.0 °F - 57.9 °F 70% 29.72 in 10.0 mi West 8.1 mph 18.4 mph N/A   Overcast
2:53 PM 68.0 °F - 57.9 °F 70% 29.39 in 10.0 mi Variable 6.9 mph - N/A   Overcast
3:53 PM 70.0 °F - 57.0 °F 63% 29.38 in 10.0 mi West 9.2 mph 17.3 mph N/A   Mostly Cloudy
4:53 PM 70.0 °F - 57.0 °F 63% 29.40 in 10.0 mi WNW 17.3 mph 25.3 mph N/A   Mostly Cloudy
5:53 PM 63.0 °F - 48.9 °F 60% 29.47 in 10.0 mi NNW 21.9 mph 29.9 mph N/A   Partly Cloudy
6:53 PM 55.9 °F - 39.9 °F 55% 29.83 in 10.0 mi NW 18.4 mph 34.5 mph N/A   Partly Cloudy
7:53 PM 53.1 °F - 36.0 °F 52% 29.88 in 10.0 mi NW 16.1 mph 31.1 mph N/A   Clear
8:53 PM 50.0 °F - 33.1 °F 52% 29.93 in 10.0 mi NNW 17.3 mph 34.5 mph N/A   Mostly Cloudy
9:53 PM 48.9 °F - 32.0 °F 52% 29.96 in 10.0 mi NW 15.0 mph 26.5 mph N/A   Clear
10:53 PM 46.9 °F - 28.9 °F 50% 29.99 in 10.0 mi NNW 16.1 mph 27.6 mph N/A   Clear
11:53 PM 46.0 °F 41.4 °F 30.0 °F 54% 30.02 in 10.0 mi NW 9.2 mph 20.7 mph N/A   Clear